Hourly Data Report for January 10, 2012

HALIFAX STANFIELD INT'L A
NOVA SCOTIA

44°52'48.060" N
63°30'00.050" W
145.40 m
8202250
71395
YHZ

Download Data

Hourly Data (January 2012)
Hourly Data Report for January 10, 2012
TIME
LST
Temp Definition
°C
Dew Point Definition
°C
Rel Hum Definition
%
Precip. Amount Definition
mm

Wind Dir Definition
10's deg

Wind Spd Definition
km/h
Visibility Definition
km
Stn Press Definition
kPa
Hmdx Definition


Wind Chill Definition


Weather Definition


00:00 -8.5 -10.9 83   25 7 24.1 100.03   -12 Clear
01:00 -9.9 -11.4 89   19 9 24.1 99.98   -15 Mainly Clear
02:00 -11.0 -12.2 91   19 11 24.1 99.89   -17 Clear
03:00 -11.7 -13.0 90   19 15 24.1 99.85   -19 Mainly Clear
04:00 -10.4 -11.7 90   19 13 24.1 99.78   -17 Mainly Clear
05:00 -9.6 -10.6 92   17 13 24.1 99.68   -16 Mostly Cloudy
06:00 -8.7 -10.1 90   16 15 24.1 99.61   -15 Mostly Cloudy
07:00 -6.9 -8.4 89   16 17 24.1 99.53   -13 Cloudy
08:00 -4.8 -6.2 90   17 17 24.1 99.52   -11 Mostly Cloudy
09:00 -3.9 -5.1 91   17 13 2.0 99.48   -9 Snow Showers
10:00 -1.8 -2.9 92   16 13 8.0 99.40   -6 Snow Showers
11:00 0.0 -0.9 94   18 17 24.1 99.31   -5 Snow Showers
12:00 1.3 -0.1 90   18 19 24.1 99.15     Mostly Cloudy
13:00 1.6 -0.4 87   18 22 24.1 99.06     Snow Showers
14:00 2.3 -0.5 82   20 24 16.1 98.99     Snow Showers
15:00 2.3 -0.5 82   20 20 16.1 98.91     Snow Showers
16:00 1.4 -1.1 83   20 26 24.1 98.90     Snow Showers
17:00 -0.2 -1.4 92   18 15 24.1 98.86   -5 Mainly Clear
18:00 -0.2 -1.4 92   18 19 24.1 98.84   -5 Mainly Clear
19:00 -0.3 -5.1 70   18 17 24.1 98.82   -5 Mostly Cloudy
20:00 0.2 -1.8 86   19 19 24.1 98.81     Cloudy
21:00 0.7 -1.8 83   19 17 24.1 98.79     Cloudy
22:00 0.9 -2.2 80   20 19 24.1 98.74     Cloudy
23:00 0.9 -1.4 85   23 28 4.8 98.72     Snow Showers

Notes on Data Quality.

Legend

  • E = Estimated
  • M = Missing
  • NA = Not Available*
  • [empty] = Indicates an unobserved value
Date modified: